Regional Weather Roundup
Issued by NWS

Home | Current Version | Previous Version | Graphics & Text | Print | Product List | Glossary On
Versions: 1 2 3 4 5 6 7 8 9 10 11 12 13 14 15 16 17 18 19 20 21 22 23 24 25 26 27 28 29 30 31 32 33 34 35 36 37 38 39 40 41 42 43 44 45 46 47 48 49 50
000
ASUS45 KABQ 210310
RWRNM
WEATHER ROUNDUP FOR NEW MEXICO
NATIONAL WEATHER SERVICE ALBUQUERQUE NM
800 PM MST SAT DEC 20 2014

NOTE: "FAIR" MEANS FEW OR NO CLOUDS BELOW 12,000 FEET AGL WITH NO
       SIGNIFICANT WEATHER OR OBSTRUCTIONS TO VISION.

      THIS PRODUCT IS RELEASED AS TWO VERSIONS.  ONE VERSION NEAR
      THE TOP OF THE HOUR CONTAINING PRELIMINARY DATA FROM ALBUQUERQUE
      AND OTHER STATIONS.  A FINAL VERSION WITH ADDITIONAL DATA IS
      ISSUED ABOUT 10 MINUTES AFTER THE HOUR.

NMZ501-503-504-510>518-210400-
NORTHWEST PLATEAU/NORTHCENTRAL MOUNTAINS

CITY           SKY/WX    TMP DP  RH WIND       PRES   REMARKS
FARMINGTON     PTCLDY    33  28  81 W6        30.10F WCI  28
LOS ALAMOS     CLOUDY    35  23  62 CALM      30.09S
SANTA FE       CLOUDY    28  23  81 N3        30.07S
TAOS           CLOUDY    30  21  69 SW6       30.07F WCI  24
ANGEL FIRE     FAIR      29  19  66 W6        30.06F WCI  23

$$
NMZ402-403-502-505>509-210400-
WESTCENTRAL MOUNTAINS/SOUTHWEST MOUNTAINS

CITY           SKY/WX    TMP DP  RH WIND       PRES   REMARKS
GALLUP         CLOUDY    34  28  79 CALM      30.14R
GRANTS         MOCLDY    32  23  69 W3        30.13S
SILVER CITY    PTCLDY    39  30  70 NW9       30.14S WCI  33

$$
NMZ407-409-411-412-210400-
SOUTHERN DESERTS

CITY           SKY/WX    TMP DP  RH WIND       PRES   REMARKS
LORDSBURG      FAIR      37  32  81 W6        30.14S WCI  33
DEMING         PTCLDY    42  31  64 W9        30.11R
LAS CRUCES     PTCLDY    38  28  69 W7        30.14R WCI  32
HOLLOMAN AFB   CLEAR     36  26  68 N7        30.11R WCI  30
ALAMOGORDO     CLEAR     37  23  56 NE8       30.12R WCI  31
T OR C         MOCLDY    39  23  52 W5        30.10S

$$
NMZ519>523-210400-
CENTRAL VALLEYS/CENTRAL HIGHLANDS

CITY           SKY/WX    TMP DP  RH WIND       PRES   REMARKS
ALBUQUERQUE    CLOUDY    36  27  69 SE3       30.10F
DOUBLE EAGLE   PTCLDY   N/A N/A N/A CALM      30.11S
MORIARTY ARPT  FAIR      26  19  73 NE3       30.08F
CLINES CORNERS MOCLDY    32  22  66 NW13      30.05R WCI  22
BELEN          FAIR      33  24  69 CALM      30.11F
SOCORRO        FAIR      36  25  64 W3        30.11F

$$
NMZ524>526-539-540-210400-
SOUTHCENTRAL MOUNTAINS

CITY           SKY/WX    TMP DP  RH WIND       PRES   REMARKS
RUIDOSO        CLEAR     37  10  32 W10       30.11R WCI  30

$$
NMZ527>531-210400-
NORTHEAST HIGHLANDS/NORTHEAST PLAINS

CITY           SKY/WX    TMP DP  RH WIND       PRES   REMARKS
LAS VEGAS      CLOUDY    33  15  47 S9        30.00F WCI  25
RATON          CLOUDY    31  13  47 N8        29.97F WCI  23
CLAYTON        PTCLDY    30  21  69 W7        29.95F WCI  23

$$
NMZ532>537-210400-
EASTCENTRAL PLAINS

CITY           SKY/WX    TMP DP  RH WIND       PRES   REMARKS
TUCUMCARI      CLEAR     33  22  63 E5        29.97S WCI  29
CANNON AFB     CLEAR     37  17  46 SW7       30.00F WCI  31
CLOVIS AIRPORT CLEAR     32  16  51 SW6       30.00F WCI  26

$$
NMZ028-029-538-210400-
SOUTHEAST PLAINS

CITY           SKY/WX    TMP DP  RH WIND       PRES   REMARKS
ROSWELL        CLEAR     38  24  57 W3        30.03R
ARTESIA        CLEAR     37  27  65 CALM      30.04S
CARLSBAD       CLEAR     46  24  42 NW8       30.02S
HOBBS          CLEAR     41  25  52 CALM      30.05S


$$


USA.gov is the U.S. government's official web portal to all federal, state and local government web resources and services.